TimeCDT,TemperatureF,Dew PointF,Humidity,Sea Level PressureIn,VisibilityMPH,Wind Direction,Wind SpeedMPH,Gust SpeedMPH,PrecipitationIn,Events,Conditions,WindDirDegrees,DateUTC
12:13 AM,64.4,60.8,88,29.85,4.0,ENE,4.6,-,N/A,,Clear,60,2013-06-22 05:13:00
12:33 AM,64.4,60.8,88,29.84,4.0,East,5.8,-,N/A,,Clear,80,2013-06-22 05:33:00
12:54 AM,64.4,60.8,88,29.87,4.0,Calm,Calm,-,N/A,,Clear,0,2013-06-22 05:54:00
1:13 AM,64.4,60.8,88,29.89,4.0,North,5.8,-,N/A,,Clear,360,2013-06-22 06:13:00
1:33 AM,64.4,60.8,88,29.92,4.0,NE,4.6,-,N/A,,Clear,40,2013-06-22 06:33:00
1:53 AM,64.4,60.8,88,29.91,4.0,Calm,Calm,-,N/A,,Clear,0,2013-06-22 06:53:00
2:13 AM,64.4,60.8,88,29.92,4.0,Calm,Calm,-,N/A,,Scattered Clouds,0,2013-06-22 07:13:00
2:33 AM,64.4,60.8,88,29.92,4.0,West,4.6,-,N/A,Thunderstorm,Scattered Clouds,270,2013-06-22 07:33:00
2:53 AM,64.4,60.8,88,29.89,3.0,East,3.5,-,N/A,Thunderstorm,Clear,100,2013-06-22 07:53:00
3:14 AM,64.4,60.8,88,29.88,3.0,East,3.5,-,N/A,,Clear,90,2013-06-22 08:14:00
3:34 AM,64.4,62.6,94,29.89,5.0,SE,8.1,-,N/A,,Clear,130,2013-06-22 08:34:00
3:54 AM,64.4,62.6,94,29.92,7.0,SE,6.9,-,N/A,,Clear,140,2013-06-22 08:54:00
4:13 AM,66.2,62.6,88,29.94,10.0,SE,5.8,-,N/A,,Scattered Clouds,140,2013-06-22 09:13:00
4:33 AM,66.2,62.6,88,29.90,10.0,SE,10.4,-,N/A,,Scattered Clouds,130,2013-06-22 09:33:00
4:53 AM,66.2,62.6,88,29.85,10.0,ESE,9.2,18.4,N/A,,Clear,110,2013-06-22 09:53:00
5:13 AM,68.0,62.6,83,29.85,10.0,Calm,Calm,-,0.01,Rain,Light Rain,0,2013-06-22 10:13:00
5:34 AM,66.2,62.6,88,29.81,10.0,ESE,5.8,-,0.01,Rain,Light Rain,120,2013-06-22 10:34:00
5:53 AM,66.2,62.6,88,29.83,10.0,ESE,5.8,-,0.01,,Clear,110,2013-06-22 10:53:00
6:13 AM,66.2,62.6,88,29.84,10.0,East,8.1,-,N/A,Rain,Light Rain,100,2013-06-22 11:13:00
6:33 AM,66.2,62.6,88,29.88,10.0,Calm,Calm,-,N/A,Rain,Light Rain,0,2013-06-22 11:33:00
6:53 AM,66.2,62.6,88,29.92,10.0,West,5.8,-,N/A,,Overcast,260,2013-06-22 11:53:00
7:14 AM,66.2,62.6,88,29.94,10.0,West,6.9,-,N/A,,Light Drizzle,280,2013-06-22 12:14:00
7:33 AM,66.2,62.6,88,29.94,10.0,WNW,5.8,-,N/A,Rain,Light Rain,290,2013-06-22 12:33:00
7:53 AM,66.2,62.6,88,29.94,10.0,Calm,Calm,-,N/A,Rain,Light Rain,0,2013-06-22 12:53:00
8:13 AM,66.2,64.4,94,29.93,10.0,Calm,Calm,-,0.01,Rain,Light Rain,0,2013-06-22 13:13:00
8:33 AM,68.0,64.4,88,29.92,10.0,Calm,Calm,-,0.01,Rain,Light Rain,0,2013-06-22 13:33:00
8:53 AM,69.8,64.4,83,29.91,10.0,Calm,Calm,-,0.01,,Scattered Clouds,0,2013-06-22 13:53:00
9:13 AM,71.6,64.4,78,29.91,10.0,Calm,Calm,-,N/A,,Scattered Clouds,0,2013-06-22 14:13:00
9:33 AM,71.6,64.4,78,29.90,10.0,Calm,Calm,-,N/A,,Clear,0,2013-06-22 14:33:00
9:53 AM,73.4,64.4,73,29.90,10.0,East,3.5,-,N/A,,Clear,100,2013-06-22 14:53:00
10:13 AM,73.4,66.2,78,29.90,10.0,East,11.5,-,N/A,,Clear,80,2013-06-22 15:13:00
10:33 AM,73.4,64.4,73,29.92,10.0,East,15.0,-,N/A,,Clear,100,2013-06-22 15:33:00
10:53 AM,73.4,64.4,73,29.92,10.0,East,16.1,-,N/A,,Scattered Clouds,100,2013-06-22 15:53:00
11:13 AM,73.4,62.6,69,29.92,10.0,ESE,12.7,20.7,N/A,,Scattered Clouds,120,2013-06-22 16:13:00
11:33 AM,73.4,62.6,69,29.92,10.0,SE,12.7,-,N/A,,Clear,130,2013-06-22 16:33:00
11:53 AM,73.4,62.6,69,29.92,10.0,ESE,10.4,17.3,N/A,,Clear,120,2013-06-22 16:53:00
12:13 PM,73.4,62.6,69,29.92,10.0,SE,8.1,-,N/A,,Clear,130,2013-06-22 17:13:00
12:33 PM,75.2,64.4,69,29.92,10.0,SE,9.2,-,N/A,,Clear,130,2013-06-22 17:33:00
12:54 PM,77.0,62.6,61,29.91,10.0,South,5.8,17.3,N/A,,Clear,170,2013-06-22 17:54:00
1:13 PM,77.0,64.4,65,29.91,10.0,Calm,Calm,-,N/A,,Clear,0,2013-06-22 18:13:00
1:34 PM,77.0,64.4,65,29.91,10.0,Calm,Calm,-,N/A,,Scattered Clouds,0,2013-06-22 18:34:00
1:54 PM,78.8,62.6,57,29.91,10.0,South,3.5,-,N/A,,Scattered Clouds,170,2013-06-22 18:54:00
2:13 PM,78.8,64.4,61,29.90,10.0,South,3.5,-,N/A,,Clear,170,2013-06-22 19:13:00
2:33 PM,78.8,62.6,57,29.89,10.0,SW,3.5,-,N/A,,Clear,230,2013-06-22 19:33:00
2:53 PM,80.6,64.4,58,29.89,10.0,Calm,Calm,-,N/A,,Scattered Clouds,0,2013-06-22 19:53:00
3:14 PM,80.6,64.4,58,29.88,10.0,SSE,3.5,-,N/A,,Clear,150,2013-06-22 20:14:00
3:33 PM,80.6,64.4,58,29.89,10.0,SE,5.8,-,N/A,,Clear,140,2013-06-22 20:33:00
3:53 PM,80.6,64.4,58,29.89,10.0,Calm,Calm,-,N/A,,Scattered Clouds,0,2013-06-22 20:53:00
4:13 PM,78.8,64.4,61,29.88,10.0,SSE,3.5,-,N/A,,Mostly Cloudy,150,2013-06-22 21:13:00
4:33 PM,78.8,64.4,61,29.88,10.0,Calm,Calm,-,N/A,,Mostly Cloudy,0,2013-06-22 21:33:00
4:53 PM,78.8,64.4,61,29.88,10.0,Calm,Calm,-,N/A,,Scattered Clouds,0,2013-06-22 21:53:00
5:13 PM,78.8,66.2,65,29.87,10.0,Calm,Calm,-,N/A,,Scattered Clouds,0,2013-06-22 22:13:00
5:34 PM,78.8,66.2,65,29.86,10.0,ESE,3.5,-,N/A,,Scattered Clouds,110,2013-06-22 22:34:00
5:53 PM,78.8,64.4,61,29.85,10.0,ESE,4.6,-,N/A,,Scattered Clouds,120,2013-06-22 22:53:00
6:13 PM,78.8,66.2,65,29.85,10.0,ESE,5.8,-,N/A,,Scattered Clouds,120,2013-06-22 23:13:00
6:33 PM,78.8,66.2,65,29.84,10.0,East,3.5,-,N/A,,Scattered Clouds,90,2013-06-22 23:33:00
6:54 PM,78.8,66.2,65,29.83,10.0,East,4.6,-,N/A,,Scattered Clouds,100,2013-06-22 23:54:00
7:13 PM,75.2,66.2,73,29.83,10.0,ESE,5.8,-,N/A,,Clear,110,2013-06-23 00:13:00
7:33 PM,75.2,66.2,73,29.83,10.0,ESE,5.8,-,N/A,,Clear,120,2013-06-23 00:33:00
7:53 PM,75.2,66.2,73,29.83,10.0,ESE,4.6,-,N/A,,Clear,110,2013-06-23 00:53:00
8:13 PM,75.2,66.2,73,29.82,10.0,ESE,4.6,-,N/A,,Clear,110,2013-06-23 01:13:00
8:33 PM,75.2,66.2,73,29.81,10.0,ESE,5.8,-,N/A,,Clear,110,2013-06-23 01:33:00
8:53 PM,75.2,66.2,73,29.81,10.0,East,5.8,-,N/A,,Clear,100,2013-06-23 01:53:00
9:13 PM,73.4,66.2,78,29.82,10.0,East,6.9,-,N/A,,Clear,100,2013-06-23 02:13:00
9:33 PM,73.4,68.0,83,29.82,10.0,East,5.8,-,N/A,,Scattered Clouds,100,2013-06-23 02:33:00
9:53 PM,73.4,68.0,83,29.81,10.0,East,5.8,-,N/A,,Scattered Clouds,80,2013-06-23 02:53:00
10:13 PM,73.4,68.0,83,29.81,10.0,East,9.2,-,N/A,,Clear,100,2013-06-23 03:13:00
10:33 PM,73.4,68.0,83,29.82,10.0,ESE,10.4,-,N/A,,Clear,110,2013-06-23 03:33:00
10:53 PM,73.4,66.2,78,29.80,10.0,East,10.4,-,N/A,,Mostly Cloudy,90,2013-06-23 03:53:00
11:13 PM,73.4,66.2,78,29.80,10.0,East,10.4,-,N/A,,Mostly Cloudy,100,2013-06-23 04:13:00
11:33 PM,73.4,66.2,78,29.78,10.0,East,10.4,17.3,N/A,,Mostly Cloudy,100,2013-06-23 04:33:00
11:53 PM,71.6,66.2,83,29.75,10.0,East,10.4,-,N/A,,Scattered Clouds,100,2013-06-23 04:53:00